This is the latest recevied weather packets stored in our database for station/object DL1SEW-6. If no packets are shown the sender has not sent any weather packets the latest 10 day(s).
| Time | Temp. | Humidity | Pressure | Rain* | Wind** | Luminosity | Snow |
|---|---|---|---|---|---|---|---|
| 1777337711 | 6.67° C | 70% | 1015.7 hPa | 0 mm | - | 0 W/m² | - |
| 1777336810 | 6.67° C | 70% | 1015.9 hPa | 0 mm | - | 0 W/m² | - |
| 1777335908 | 6.67° C | 70% | 1015.9 hPa | 0 mm | - | 0 W/m² | - |
| 1777335009 | 6.67° C | 70% | 1016 hPa | 0 mm | - | 0 W/m² | - |
| 1777334109 | 6.67° C | 69% | 1016.1 hPa | 0 mm | - | 0 W/m² | - |
| 1777333210 | 7.22° C | 69% | 1016.2 hPa | 0 mm | - | 0 W/m² | - |
| 1777332309 | 7.22° C | 68% | 1016.3 hPa | 0 mm | - | 0 W/m² | - |
| 1777331408 | 7.78° C | 67% | 1016.3 hPa | 0 mm | - | 0 W/m² | - |
| 1777330509 | 7.78° C | 66% | 1016.2 hPa | 0 mm | - | 0 W/m² | - |
| 1777329607 | 8.33° C | 65% | 1016.3 hPa | 0 mm | - | 0 W/m² | - |
| 1777328707 | 8.33° C | 65% | 1016.3 hPa | 0 mm | - | 0 W/m² | - |
| 1777327807 | 8.33° C | 64% | 1016.4 hPa | 0 mm | - | 0 W/m² | - |
| 1777326907 | 8.89° C | 63% | 1017.5 hPa | 0 mm | - | 0 W/m² | - |
| 1777326007 | 8.89° C | 62% | 1017.7 hPa | 0 mm | - | 0 W/m² | - |
| 1777325106 | 9.44° C | 61% | 1017.8 hPa | 0 mm | - | 0 W/m² | - |
| 1777324211 | 10° C | 59% | 1017.7 hPa | 0 mm | - | 0 W/m² | - |
| 1777323313 | 11.11° C | 57% | 1018 hPa | 0 mm | - | 0 W/m² | - |
| 1777322411 | 11.67° C | 54% | 1017.9 hPa | 0 mm | - | 0 W/m² | - |
| 1777321511 | 12.22° C | 52% | 1018 hPa | 0 mm | - | 0 W/m² | - |
| 1777320611 | 12.78° C | 50% | 1018.1 hPa | 0 mm | - | 0 W/m² | - |
| 1777319711 | 13.33° C | 48% | 1018.1 hPa | 0 mm | - | 0 W/m² | - |
| 1777318811 | 13.89° C | 45% | 1018.2 hPa | 0 mm | - | 0 W/m² | - |
| 1777317912 | 14.44° C | 42% | 1018.4 hPa | 0 mm | - | 0 W/m² | - |
| 1777317012 | 15° C | 41% | 1018 hPa | 0 mm | - | 0 W/m² | - |
| 1777316111 | 15.56° C | 41% | 1017.8 hPa | 0 mm | - | 0 W/m² | - |
* Rain latest hour (hover to see other rain measurements)
** Current wind speed in m/s (hover to see current wind gust speed)